Temp
-5 -6 -6 -6 -5 -5 -5 -5 -5 -5 -5 -6 -6 -6 -6 -6 -6 -6 -6 -7 -7 -7 -7 -7 -7 -7 -7 -7 -7 -7 -7 -7 -7 -7 -7 -7 -7 -7 -7 -7 -7 -7
-5 -6 -6 -6 -5 -5 -5 -5 -5 -6 -6 -6 -6 -6 -6 -6 -6 -6 -6 -6 -7 -7 -7 -7 -7 -7 -7 -7 -7 -7 -7 -7 -7 -7 -7 -7 -7 -7 -7 -7 -7 -7
-5 -6 -6 -6 -6 -5 -5 -5 -5 -6 -6 -6 -6 -6 -6 -6 -6 -6 -6 -6 -6 -6 -6 -6 -7 -7 -7 -7 -7 -7 -7 -7 -7 -7 -7 -7 -8 -8 -8 -8 -8 -8
-5 -5 -6 -6 -5 -5 -5 -5 -5 -6 -6 -6 -6 -6 -6 -6 -6 -6 -6 -6 -6 -6 -6 -6 -7 -7 -7 -7 -7 -7 -7 -7 -7 -7 -8 -8 -8 -8 -8 -8 -8 -8
-5 -5 -5 -5 -5 -5 -5 -5 -5 -5 -6 -6 -6 -6 -6 -6 -6 -6 -6 -6 -6 -6 -6 -6 -6 -6 -7 -7 -7 -7 -7 -7 -7 -7 -8 -8 -8 -8 -8 -8 -8 -8
-5 -5 -5 -5 -5 -5 -5 -5 -5 -5 -6 -6 -6 -6 -6 -6 -6 -6 -6 -6 -6 -6 -6 -6 -6 -6 -6 -6 -6 -7 -7 -7 -7 -7 -7 -8 -8 -8 -8 -8 -8 -8
-5 -5 -5 -5 -5 -5 -5 -5 -5 -5 -5 -6 -6 -6 -6 -6 -6 -6 -6 -6 -6 -6 -6 -6 -6 -6 -6 -6 -6 -6 -7 -7 -7 -7 -7 -7 -8 -8 -8 -8 -8 -8
-5 -5 -5 -4 -4 -4 -5 -5 -5 -5 -5 -6 -6 -6 -6 -6 -6 -6 -6 -6 -6 -6 -6 -6 -7 -7 -7 -6 -6 -6 -6 -7 -7 -7 -7 -7 -7 -8 -8 -8 -8 -8
-5 -5 -5 -4 -4 -4 -5 -5 -5 -5 -5 -6 -6 -6 -6 -6 -6 -6 -6 -6 -6 -6 -6 -7 -7 -7 -7 -6 -6 -6 -6 -6 -7 -7 -7 -7 -7 -7 -8 -8 -8 -8
-5 -5 -5 -4 -4 -4 -5 -5 -5 -5 -5 -6 -6 -6 -6 -6 -6 -6 -6 -6 -6 -6 -6 -6 -6 -6 -6 -6 -6 -6 -6 -6 -7 -7 -7 -7 -7 -7 -7 -8 -8 -8
-5 -5 -5 -4 -4 -4 -5 -5 -5 -5 -5 -6 -6 -6 -6 -6 -6 -6 -6 -6 -6 -6 -6 -6 -6 -6 -6 -6 -6 -6 -6 -6 -7 -7 -7 -7 -7 -7 -7 -7 -8 -8
-5 -5 -5 -5 -4 -4 -5 -5 -5 -5 -5 -5 -6 -6 -6 -6 -6 -6 -6 -6 -6 -6 -6 -6 -6 -6 -6 -6 -6 -6 -6 -6 -6 -7 -7 -7 -7 -7 -7 -7 -7 -7
-5 -5 -5 -5 -5 -5 -5 -5 -5 -5 -5 -5 -5 -6 -6 -6 -6 -6 -6 -6 -6 -6 -6 -6 -5 -5 -6 -6 -6 -6 -6 -6 -6 -7 -7 -7 -7 -7 -7 -7 -7 -7
-5 -5 -5 -5 -5 -5 -5 -4 -5 -5 -5 -5 -5 -5 -6 -6 -6 -6 -6 -6 -6 -6 -5 -5 -5 -5 -6 -6 -6 -6 -6 -6 -6 -6 -6 -7 -7 -7 -7 -7 -7 -7
-5 -5 -5 -5 -5 -5 -5 -5 -5 -5 -5 -5 -5 -5 -5 -6 -6 -6 -6 -6 -5 -5 -5 -5 -5 -6 -6 -6 -5 -5 -5 -5 -6 -6 -6 -7 -7 -7 -7 -7 -7 -7
-5 -5 -5 -5 -5 -5 -5 -5 -5 -5 -5 -5 -5 -5 -5 -5 -5 -5 -5 -5 -5 -5 -5 -5 -5 -6 -6 -5 -5 -5 -5 -5 -5 -6 -6 -6 -7 -7 -7 -7 -7 -7
-6 -5 -5 -5 -5 -5 -5 -5 -5 -5 -5 -5 -5 -5 -5 -5 -5 -5 -5 -5 -5 -5 -5 -5 -5 -6 -6 -5 -5 -5 -5 -5 -5 -5 -5 -6 -6 -6 -7 -7 -7 -7
-6 -6 -5 -5 -5 -5 -5 -5 -5 -5 -5 -5 -5 -5 -5 -5 -5 -5 -5 -5 -5 -5 -5 -5 -6 -6 -5 -5 -5 -5 -5 -5 -5 -5 -5 -6 -6 -6 -6 -6 -7 -7
-6 -6 -5 -5 -5 -5 -5 -5 -5 -5 -5 -5 -5 -5 -5 -5 -5 -5 -5 -5 -5 -5 -5 -6 -6 -6 -5 -5 -5 -5 -5 -5 -5 -5 -5 -5 -6 -6 -6 -6 -6 -6
-6 -6 -5 -5 -5 -5 -5 -5 -5 -5 -5 -5 -5 -5 -5 -5 -5 -5 -5 -5 -5 -5 -5 -6 -6 -6 -6 -6 -5 -5 -5 -5 -5 -5 -5 -5 -5 -5 -6 -6 -6 -6
-6 -6 -6 -5 -5 -5 -5 -5 -5 -5 -5 -5 -5 -5 -5 -5 -5 -5 -5 -5 -5 -5 -5 -5 -6 -6 -6 -6 -6 -5 -5 -5 -5 -5 -5 -5 -5 -5 -5 -6 -6 -6
-6 -6 -6 -5 -5 -5 -5 -5 -5 -5 -5 -5 -5 -5 -5 -5 -5 -5 -5 -5 -5 -5 -5 -6 -6 -6 -5 -5 -6 -6 -5 -6 -6 -6 -6 -5 -5 -5 -5 -5 -6 -6
-6 -6 -6 -6 -6 -5 -5 -5 -5 -5 -5 -5 -5 -5 -5 -6 -6 -6 -6 -6 -6 -6 -6 -6 -6 -6 -5 -5 -5 -5 -6 -6 -6 -6 -6 -6 -5 -5 -5 -6 -6 -6
-6 -6 -6 -6 -6 -6 -6 -6 -6 -6 -6 -6 -6 -6 -6 -6 -6 -6 -6 -6 -6 -6 -6 -6 -6 -6 -5 -5 -5 -6 -6 -6 -6 -6 -6 -6 -6 -6 -6 -6 -6 -6
-6 -6 -6 -6 -6 -6 -6 -6 -6 -6 -6 -6 -6 -6 -6 -6 -6 -6 -6 -6 -6 -6 -6 -6 -6 -6 -6 -6 -6 -6 -6 -6 -6 -6 -6 -6 -6 -6 -6 -6 -6 -6
-6 -6 -6 -6 -6 -6 -6 -6 -6 -6 -6 -6 -6 -6 -6 -6 -6 -6 -6 -6 -6 -6 -6 -6 -6 -6 -6 -6 -6 -6 -6 -6 -6 -6 -6 -6 -6 -6 -6 -6 -6 -7
Height
5932 5934 5936 5937 5938 5940 5942 5943 5945 5946 5947 5948 5949 5950 5951 5952 5953 5954 5955 5956 5958 5959 5960 5960 5960 5960 5960 5960 5959 5959 5960 5960 5960 5960 5960 5961 5961 5961 5962 5962 5962 5963
5931 5933 5934 5936 5937 5939 5941 5942 5944 5945 5946 5947 5949 5950 5951 5952 5953 5954 5955 5956 5957 5959 5960 5961 5962 5962 5961 5961 5961 5960 5960 5960 5960 5961 5961 5961 5961 5962 5962 5962 5962 5963
5929 5931 5933 5934 5936 5937 5939 5941 5942 5944 5945 5947 5948 5950 5951 5952 5953 5954 5955 5956 5957 5958 5959 5961 5962 5962 5963 5962 5962 5961 5961 5961 5961 5961 5962 5962 5962 5962 5962 5962 5962 5962
5927 5929 5931 5932 5934 5935 5937 5939 5941 5942 5944 5946 5947 5949 5950 5951 5953 5954 5955 5956 5956 5957 5959 5960 5961 5962 5963 5963 5963 5963 5962 5962 5962 5962 5962 5962 5962 5961 5961 5961 5962 5962
5925 5927 5928 5930 5932 5934 5936 5938 5940 5941 5943 5945 5946 5948 5949 5951 5952 5953 5954 5955 5956 5957 5958 5959 5960 5961 5962 5962 5963 5963 5963 5962 5962 5962 5962 5962 5961 5961 5961 5961 5961 5961
5923 5925 5926 5928 5930 5932 5935 5936 5938 5940 5942 5943 5945 5947 5948 5950 5951 5952 5953 5954 5955 5956 5957 5958 5959 5960 5961 5961 5962 5962 5963 5963 5962 5962 5962 5962 5961 5961 5961 5960 5960 5961
5922 5923 5925 5926 5928 5931 5933 5935 5936 5938 5940 5942 5943 5945 5947 5949 5950 5951 5952 5953 5954 5955 5956 5957 5958 5959 5960 5960 5961 5962 5962 5962 5962 5962 5962 5961 5961 5961 5960 5960 5960 5960
5920 5921 5923 5925 5927 5929 5931 5933 5935 5936 5938 5940 5942 5944 5945 5947 5948 5950 5951 5952 5953 5954 5956 5957 5958 5959 5959 5960 5960 5960 5961 5961 5961 5961 5961 5961 5961 5961 5960 5960 5960 5960
5917 5919 5921 5923 5925 5927 5929 5931 5933 5934 5936 5938 5940 5941 5943 5945 5947 5948 5949 5951 5952 5953 5955 5956 5957 5958 5958 5959 5959 5959 5960 5960 5960 5961 5961 5961 5961 5960 5960 5960 5960 5960
5915 5917 5919 5922 5924 5926 5928 5929 5931 5933 5934 5936 5938 5939 5941 5943 5945 5946 5948 5949 5950 5952 5953 5954 5955 5956 5957 5957 5958 5958 5959 5959 5959 5960 5960 5960 5960 5960 5960 5960 5959 5959
5913 5916 5918 5920 5922 5924 5926 5927 5929 5931 5933 5934 5936 5938 5939 5941 5943 5944 5946 5947 5948 5950 5951 5952 5954 5955 5956 5956 5957 5957 5957 5957 5958 5958 5959 5959 5959 5959 5959 5959 5959 5959
5911 5914 5916 5919 5920 5922 5924 5925 5927 5929 5931 5933 5934 5936 5937 5939 5941 5942 5944 5945 5947 5948 5949 5950 5952 5953 5954 5955 5956 5956 5956 5956 5956 5956 5957 5957 5958 5958 5958 5958 5958 5958
5910 5912 5914 5916 5918 5920 5922 5924 5926 5927 5929 5931 5932 5934 5936 5937 5939 5941 5942 5944 5945 5946 5948 5949 5950 5951 5953 5953 5954 5955 5955 5955 5955 5954 5955 5955 5956 5956 5957 5956 5957 5957
5907 5909 5911 5913 5915 5917 5919 5922 5924 5925 5927 5929 5930 5932 5934 5936 5937 5939 5940 5942 5943 5944 5946 5947 5949 5950 5951 5952 5952 5953 5953 5953 5953 5953 5953 5953 5954 5954 5955 5955 5955 5955
5904 5906 5908 5910 5913 5915 5917 5920 5922 5924 5925 5927 5929 5931 5932 5934 5935 5937 5939 5940 5941 5943 5944 5945 5947 5948 5949 5950 5950 5951 5951 5951 5951 5951 5952 5952 5952 5953 5953 5953 5954 5954
5901 5904 5906 5908 5911 5913 5915 5918 5920 5922 5923 5925 5927 5929 5930 5932 5933 5935 5937 5938 5940 5941 5942 5944 5945 5946 5947 5947 5948 5949 5949 5950 5950 5950 5950 5950 5951 5951 5951 5952 5952 5952
5899 5901 5903 5906 5908 5910 5913 5915 5917 5919 5921 5923 5925 5926 5928 5930 5932 5934 5935 5936 5938 5939 5941 5942 5943 5944 5945 5945 5946 5947 5947 5948 5948 5948 5948 5949 5949 5949 5950 5950 5950 5951
5897 5899 5901 5903 5905 5908 5910 5912 5914 5917 5919 5921 5923 5925 5926 5928 5930 5932 5933 5934 5936 5937 5939 5940 5941 5941 5942 5943 5944 5945 5945 5946 5946 5946 5946 5947 5947 5947 5948 5948 5948 5949
5895 5897 5899 5901 5903 5905 5907 5909 5912 5914 5917 5919 5921 5923 5924 5927 5928 5930 5931 5933 5934 5935 5936 5938 5938 5939 5940 5941 5942 5943 5943 5944 5944 5944 5944 5944 5945 5945 5946 5946 5947 5947
5892 5895 5897 5898 5900 5902 5904 5907 5910 5912 5914 5916 5918 5921 5923 5925 5926 5928 5929 5931 5932 5933 5934 5935 5936 5937 5938 5939 5940 5940 5941 5941 5942 5942 5942 5942 5943 5943 5943 5944 5944 5945
5891 5893 5894 5896 5898 5900 5903 5906 5908 5910 5912 5914 5916 5919 5921 5922 5924 5925 5927 5928 5929 5931 5932 5933 5934 5935 5936 5937 5937 5938 5939 5939 5940 5940 5940 5940 5940 5941 5941 5942 5942 5943
5889 5890 5892 5894 5896 5899 5902 5904 5906 5908 5910 5912 5914 5916 5918 5920 5922 5923 5924 5925 5927 5928 5930 5930 5931 5932 5933 5934 5935 5935 5936 5937 5937 5937 5937 5937 5938 5938 5939 5939 5940 5941
5887 5888 5890 5892 5895 5898 5900 5902 5904 5906 5907 5910 5912 5914 5916 5917 5919 5920 5921 5922 5924 5926 5927 5927 5928 5929 5931 5931 5932 5933 5934 5935 5935 5935 5935 5935 5935 5936 5937 5937 5938 5939
5884 5886 5888 5891 5893 5896 5898 5899 5901 5903 5905 5907 5909 5911 5912 5914 5915 5917 5918 5920 5922 5924 5925 5925 5925 5926 5928 5929 5930 5931 5931 5932 5932 5932 5932 5932 5933 5933 5934 5935 5935 5936
5882 5884 5886 5889 5892 5894 5895 5897 5899 5900 5902 5904 5906 5908 5910 5911 5913 5914 5916 5918 5920 5921 5922 5922 5923 5924 5925 5926 5927 5928 5929 5929 5929 5930 5930 5930 5930 5931 5932 5932 5933 5934
5879 5882 5885 5887 5890 5891 5893 5894 5896 5898 5900 5902 5904 5905 5907 5909 5910 5912 5914 5915 5917 5918 5919 5920 5920 5921 5922 5923 5924 5925 5926 5926 5927 5928 5928 5927 5928 5929 5929 5930 5931 5931
Wind_Speed
18 19 20 21 20 20 18 17 16 15 14 13 13 13 12 13 14 15 16 17 17 17 18 17 18 18 17 17 17 15 14 12 11 10 10 11 11 12 12 11 11 9
20 20 21 21 21 20 18 18 17 16 14 13 13 12 12 14 16 18 18 19 18 17 16 15 14 14 14 15 15 15 15 14 13 11 10 10 11 11 11 11 10 9
22 22 22 22 22 21 20 19 18 17 15 13 12 13 15 17 19 19 19 18 17 15 13 12 10 10 10 10 11 12 12 13 13 12 10 9 9 10 11 10 10 10
24 24 24 24 24 23 22 20 19 18 16 14 15 16 18 20 20 20 19 17 15 13 11 9 8 7 6 6 7 7 8 9 10 10 10 9 8 8 9 10 10 10
26 26 26 26 25 24 23 21 20 19 17 17 18 19 20 21 21 20 18 16 14 12 9 7 6 5 4 3 3 4 4 5 6 7 7 7 7 6 7 8 9 9
28 27 27 27 27 25 24 23 22 21 19 19 20 21 22 22 21 19 17 15 13 10 8 6 5 3 2 1 1 1 1 2 3 4 5 5 5 5 5 5 7 8
28 28 28 28 27 26 25 25 24 22 20 20 21 22 22 22 21 19 17 15 12 10 8 6 4 3 2 1 1 1 1 1 0 1 2 3 3 3 3 3 5 7
29 29 29 29 28 27 27 27 25 24 22 22 23 23 23 23 21 19 17 14 12 9 7 6 5 5 4 4 3 3 2 3 2 2 2 2 3 2 1 1 2 4
31 31 30 29 28 28 28 28 27 26 24 24 25 25 25 24 22 20 17 14 11 9 8 8 7 7 7 6 5 4 4 4 4 4 3 3 4 3 3 3 2 2
31 31 31 29 28 28 29 29 28 27 25 26 26 26 26 25 23 20 17 14 12 11 10 10 10 9 9 8 7 6 5 5 5 5 5 5 5 5 5 5 5 4
31 31 31 30 29 29 30 30 29 28 26 27 27 27 27 26 23 21 18 15 14 13 12 12 11 10 10 9 7 6 6 6 7 7 7 7 7 7 7 7 7 7
29 30 31 30 30 30 31 31 30 29 28 28 28 28 28 26 24 21 19 17 16 15 14 14 12 11 10 9 8 7 7 8 9 10 10 9 9 9 9 9 9 8
28 30 31 31 32 31 32 32 31 30 29 28 28 29 28 27 24 22 20 19 18 17 16 15 13 12 11 10 9 9 9 10 11 12 12 11 11 11 10 10 10 9
28 30 32 33 33 33 32 32 32 31 30 29 29 29 28 27 26 24 22 21 20 19 18 16 14 12 11 11 11 11 11 11 12 12 13 13 13 12 12 11 11 10
29 30 32 34 34 33 33 32 33 32 31 30 29 29 29 28 27 25 23 22 21 20 18 16 14 13 13 13 13 12 12 12 12 12 13 14 14 14 13 13 13 12
30 31 32 34 34 33 33 32 33 33 32 31 30 30 30 29 27 25 24 23 22 21 19 17 15 14 15 15 15 14 13 12 12 13 13 14 15 15 15 15 15 14
31 31 32 33 34 34 34 33 33 34 33 32 32 31 31 29 28 26 25 25 24 22 20 18 16 16 16 17 16 15 14 14 14 14 14 15 15 15 16 16 16 15
31 31 32 34 34 34 34 34 34 34 34 33 33 32 31 30 29 28 27 27 24 22 20 18 18 18 18 18 18 17 16 15 15 15 15 16 15 15 16 16 16 15
33 33 33 34 35 35 35 35 34 34 34 34 34 33 32 31 30 29 28 27 24 22 20 19 19 19 19 19 18 18 17 17 16 16 16 16 16 15 16 16 16 16
34 34 34 34 35 35 35 34 34 34 35 34 34 33 32 31 30 30 28 26 24 22 21 20 20 20 20 19 19 19 18 17 17 17 17 17 16 15 15 16 16 16
34 34 34 35 35 35 34 33 33 34 35 35 34 33 32 32 31 30 27 25 24 23 22 21 21 21 20 20 19 19 19 18 17 17 17 17 16 16 16 16 16 16
33 34 34 34 34 33 32 32 32 33 34 34 34 33 32 31 30 28 26 26 24 23 21 21 22 22 21 20 20 19 19 18 18 18 18 17 16 16 16 16 16 17
33 33 33 33 32 31 30 30 31 31 32 32 32 32 31 29 28 27 27 26 24 22 22 23 24 23 22 22 21 20 19 18 18 19 19 17 17 16 17 17 16 17
33 33 32 32 30 30 29 30 30 30 30 30 30 30 29 28 27 27 26 25 24 23 23 24 25 25 23 23 22 20 20 19 19 19 19 18 17 17 17 17 17 17
33 32 32 31 30 29 29 29 29 29 29 29 29 28 28 27 27 26 25 24 24 24 25 25 26 26 25 23 22 21 21 21 20 20 19 19 19 19 18 18 18 18
33 32 31 30 29 29 29 29 29 28 28 27 27 27 27 26 26 25 25 25 25 25 26 26 27 27 26 25 24 23 22 21 21 20 20 20 20 20 19 19 19 19
Wind_Direction
188 185 191 198 201 200 196 194 194 194 196 197 197 194 188 180 169 160 152 143 135 128 123 119 116 113 111 110 109 109 110 113 120 129 136 140 144 147 149 149 148 144
189 188 193 199 202 201 197 194 195 196 197 198 194 189 183 173 163 154 146 139 132 127 122 118 114 112 110 109 108 107 105 105 107 116 131 144 153 160 165 168 169 166
191 191 194 199 201 202 199 194 193 196 197 193 185 182 177 168 159 152 145 140 136 132 128 124 118 113 110 109 110 109 107 106 104 104 113 132 152 166 173 178 180 179
194 193 196 200 202 201 198 193 193 196 195 187 181 180 174 166 159 154 149 146 143 140 138 134 129 122 114 109 108 110 112 112 111 107 104 108 128 153 169 176 178 178
197 196 198 201 203 201 196 193 194 195 193 186 182 179 174 168 163 159 156 154 152 150 149 148 143 134 125 112 101 102 108 113 117 119 115 106 105 121 150 169 173 174
201 199 201 203 203 200 195 193 194 194 192 187 183 181 176 172 168 165 164 163 162 163 164 165 164 158 152 129 100 81 83 98 115 126 132 126 113 103 116 151 168 170
203 203 205 206 204 200 196 195 195 194 191 188 185 182 179 176 174 172 171 170 171 175 180 187 194 202 210 216 229 257 291 283 269 159 150 150 149 128 102 119 161 173
205 206 207 208 206 201 198 197 196 194 191 188 186 184 181 180 179 178 176 177 181 188 195 206 218 229 238 245 248 253 258 261 265 253 219 198 197 195 174 110 146 181
208 208 209 209 207 203 200 199 198 196 192 188 186 186 184 184 184 183 182 185 191 202 212 222 229 233 239 246 250 252 252 253 256 255 246 236 231 226 229 243 253 217
209 210 210 210 209 205 202 202 201 198 193 189 188 187 186 187 187 186 187 193 203 215 224 231 234 234 237 244 249 249 248 250 254 253 247 244 242 235 234 246 256 256
210 211 212 212 210 208 204 204 203 201 196 192 191 189 189 190 190 189 192 201 214 223 230 235 239 239 242 244 245 245 246 248 251 250 245 242 245 241 236 243 252 259
211 211 212 212 212 210 207 205 205 203 199 196 193 192 191 192 192 193 199 209 219 227 233 239 243 246 247 245 239 238 242 245 246 249 248 246 246 246 241 242 250 256
210 210 211 212 213 213 210 207 206 204 202 199 197 195 194 195 196 199 206 214 222 229 235 240 244 249 250 246 240 236 238 242 245 249 253 253 252 252 248 247 249 250
209 209 210 211 212 214 213 209 207 206 204 202 200 198 198 199 200 204 210 216 223 231 236 240 246 249 248 243 241 243 246 248 250 252 256 259 260 258 254 251 250 248
208 209 210 211 212 214 214 212 209 208 207 205 203 201 201 202 204 208 213 219 225 232 238 243 247 245 241 240 243 248 254 259 260 259 259 260 261 260 256 252 250 248
208 208 210 211 213 214 215 214 211 210 209 207 205 204 205 206 207 210 216 222 228 234 240 245 246 240 238 243 248 253 259 264 265 263 261 260 259 258 255 252 250 249
208 208 209 210 212 214 215 214 212 211 210 209 208 208 208 210 211 214 220 225 230 236 241 243 240 236 238 246 253 258 262 265 267 266 265 263 260 256 252 250 250 250
209 209 210 211 212 214 214 213 212 211 210 210 210 211 211 213 215 218 223 227 232 236 239 237 235 236 241 247 252 256 258 262 266 268 267 266 262 256 251 247 246 247
211 210 211 211 212 213 213 212 211 209 210 211 212 213 214 216 218 221 225 230 233 235 235 232 233 238 244 248 251 253 255 257 262 265 266 266 264 256 248 245 244 242
213 211 212 213 213 214 213 212 210 209 210 212 213 215 217 219 221 225 229 232 233 232 230 230 234 240 245 248 250 252 253 255 259 262 263 263 261 253 245 242 241 236
214 213 213 214 215 215 214 212 211 211 212 213 214 217 219 222 225 228 231 233 232 230 229 232 237 241 244 247 249 251 252 254 258 261 261 260 256 248 240 236 234 231
215 214 215 215 216 216 215 213 213 214 215 215 217 219 222 225 228 230 232 232 230 229 231 235 240 242 245 248 249 250 252 254 257 259 259 257 252 244 236 233 231 229
214 214 215 216 216 216 215 216 216 217 218 218 220 222 225 227 228 229 229 228 227 228 231 236 241 243 246 248 250 252 252 253 256 258 257 256 251 242 236 235 232 230
212 213 214 214 215 215 216 217 219 220 221 221 222 224 226 227 228 227 227 226 225 227 231 236 242 245 246 249 252 254 254 254 255 257 257 253 248 242 239 238 236 235
211 212 213 213 213 215 217 219 221 222 223 223 224 226 227 228 228 228 227 226 226 228 231 237 242 246 247 249 252 253 253 253 255 256 254 250 246 244 244 244 243 241
210 211 212 212 213 215 217 219 221 222 223 223 224 226 226 227 227 227 227 228 229 231 235 239 243 247 248 250 251 253 253 253 254 254 250 246 245 248 250 249 248 246